Temp
5 4 4 4 3 3 3 2 2 1 1 0 -0 -0 -1 -1 -1 -1 -1 -1 -1 -1 -1 -1 -1 -1 -1 -1 -1 -1 -1 -1 0 1 1 1 1 0 0 1 0 0 -0
5 4 4 4 4 3 3 2 1 1 1 0 -0 -1 -1 -2 -2 -2 -2 -2 -2 -2 -2 -2 -2 -2 -2 -2 -2 -1 -1 -1 -1 -1 -0 0 0 1 0 0 -0 -0 -1
4 4 4 4 3 3 3 2 2 1 1 0 -1 -2 -2 -2 -2 -2 -2 -3 -3 -3 -3 -3 -3 -3 -3 -3 -3 -3 -3 -3 -3 -2 -2 -2 -1 0 0 0 -1 -1 -0
4 3 3 2 2 2 2 2 2 0 -0 -1 -1 -1 -2 -3 -3 -3 -3 -3 -4 -4 -4 -4 -4 -4 -4 -4 -4 -5 -5 -5 -5 -5 -4 -3 -3 -2 -1 -1 -1 -1 -1
3 3 2 2 1 1 1 1 -0 -0 -1 -1 -1 -2 -3 -3 -4 -4 -4 -4 -5 -5 -5 -5 -6 -7 -6 -6 -6 -6 -6 -6 -6 -6 -6 -6 -4 -4 -4 -1 -2 -2 -3
2 2 1 1 0 0 -0 -0 -1 -1 -2 -2 -3 -3 -4 -4 -4 -5 -5 -6 -6 -6 -7 -7 -8 -8 -9 -9 -9 -8 -8 -7 -6 -7 -7 -7 -7 -6 -5 -5 -3 -2 -3
1 0 0 -0 -1 -1 -2 -2 -2 -2 -3 -3 -3 -3 -4 -5 -5 -6 -7 -7 -8 -8 -9 -9 -9 -10 -10 -11 -11 -11 -11 -10 -9 -9 -8 -8 -7 -7 -6 -6 -5 -4 -3
-0 0 -0 -1 -2 -2 -3 -3 -3 -3 -3 -4 -4 -5 -5 -6 -6 -7 -7 -8 -8 -9 -9 -10 -10 -10 -10 -11 -11 -11 -11 -11 -11 -10 -10 -10 -9 -9 -8 -7 -7 -6 -4
-0 -0 -1 -2 -2 -3 -3 -3 -3 -4 -4 -4 -5 -6 -7 -7 -8 -9 -9 -9 -9 -10 -10 -10 -10 -11 -11 -11 -12 -12 -12 -12 -12 -11 -11 -10 -11 -12 -10 -9 -9 -9 -7
-1 -1 -1 -2 -2 -2 -3 -3 -4 -5 -5 -5 -6 -7 -7 -8 -9 -10 -10 -10 -10 -11 -11 -11 -11 -12 -12 -12 -12 -12 -12 -12 -12 -12 -12 -11 -11 -12 -12 -9 -9 -10 -9
-2 -1 -1 -2 -2 -3 -3 -3 -4 -5 -6 -6 -7 -7 -8 -9 -10 -10 -10 -11 -11 -11 -12 -12 -12 -12 -12 -12 -12 -12 -12 -12 -12 -12 -12 -12 -12 -12 -13 -12 -12 -12 -11
-0 -1 -2 -2 -2 -2 -3 -4 -5 -6 -7 -7 -8 -9 -9 -10 -10 -11 -11 -12 -12 -12 -12 -12 -13 -13 -13 -13 -13 -12 -12 -12 -12 -12 -12 -12 -12 -12 -12 -12 -12 -12 -12
-2 -3 -4 -3 -3 -3 -3 -4 -5 -7 -8 -8 -9 -9 -9 -10 -11 -12 -12 -12 -12 -12 -13 -13 -13 -13 -13 -13 -13 -13 -13 -13 -12 -12 -13 -12 -12 -12 -12 -13 -12 -12 -12
-3 -3 -3 -3 -3 -4 -4 -5 -6 -8 -9 -9 -9 -9 -10 -11 -12 -12 -12 -12 -13 -13 -13 -13 -13 -13 -13 -13 -13 -13 -13 -13 -12 -12 -12 -13 -13 -13 -12 -14 -13 -12 -12
-3 -3 -3 -3 -4 -5 -5 -6 -7 -8 -8 -9 -9 -10 -11 -12 -12 -13 -13 -13 -13 -13 -13 -13 -13 -13 -13 -13 -13 -13 -13 -13 -12 -12 -12 -12 -12 -12 -12 -13 -13 -13 -13
-3 -3 -4 -4 -5 -6 -7 -7 -8 -8 -9 -10 -10 -12 -12 -12 -13 -13 -13 -13 -13 -13 -13 -13 -13 -13 -13 -13 -13 -13 -13 -13 -12 -12 -12 -12 -12 -13 -13 -13 -13 -13 -13
-4 -4 -5 -5 -5 -7 -8 -9 -9 -9 -10 -10 -12 -13 -13 -13 -13 -14 -14 -14 -14 -13 -13 -13 -13 -13 -13 -13 -13 -13 -13 -13 -13 -13 -13 -13 -13 -13 -13 -13 -13 -13 -13
-5 -5 -5 -6 -6 -7 -8 -9 -9 -10 -11 -12 -12 -13 -13 -13 -14 -14 -14 -14 -14 -13 -13 -13 -14 -14 -13 -14 -13 -13 -14 -14 -14 -13 -13 -13 -13 -13 -14 -14 -14 -14 -14
-5 -6 -6 -7 -7 -8 -9 -9 -10 -11 -12 -13 -13 -13 -13 -14 -14 -14 -14 -14 -14 -14 -14 -14 -14 -14 -13 -14 -14 -14 -14 -14 -14 -14 -14 -14 -14 -14 -14 -15 -14 -14 -14
-5 -6 -6 -7 -8 -8 -9 -10 -11 -12 -13 -13 -14 -13 -14 -14 -14 -14 -14 -14 -14 -14 -14 -14 -14 -14 -14 -14 -14 -14 -14 -14 -14 -14 -14 -14 -14 -15 -15 -15 -15 -15 -15
-6 -6 -7 -7 -8 -9 -10 -11 -13 -13 -13 -14 -14 -14 -14 -14 -14 -14 -14 -14 -14 -14 -14 -14 -14 -15 -15 -15 -15 -15 -15 -15 -15 -14 -15 -15 -15 -15 -15 -15 -15 -15 -14
-6 -7 -8 -9 -9 -10 -11 -13 -13 -13 -13 -14 -14 -14 -14 -14 -15 -14 -15 -15 -15 -14 -14 -14 -14 -15 -15 -15 -15 -14 -14 -15 -15 -14 -14 -14 -14 -14 -14 -15 -15 -15 -15
-7 -8 -9 -9 -10 -11 -12 -13 -13 -14 -14 -14 -14 -15 -15 -15 -15 -15 -15 -15 -14 -14 -14 -15 -15 -15 -15 -15 -15 -15 -14 -14 -14 -14 -14 -14 -13 -13 -13 -14 -14 -14 -14
-8 -9 -10 -10 -11 -12 -13 -13 -14 -14 -14 -15 -15 -15 -15 -15 -15 -15 -15 -15 -15 -15 -15 -15 -15 -15 -15 -15 -15 -14 -14 -14 -14 -14 -13 -13 -12 -12 -13 -12 -13 -14 -14
-9 -10 -11 -12 -13 -13 -13 -14 -14 -14 -15 -15 -15 -15 -15 -15 -15 -15 -15 -15 -15 -15 -16 -16 -15 -15 -14 -14 -14 -14 -14 -14 -14 -13 -13 -13 -13 -13 -13 -13 -14 -14 -14
-10 -11 -12 -13 -13 -14 -14 -14 -15 -15 -15 -15 -15 -15 -15 -15 -15 -15 -15 -16 -16 -16 -16 -16 -16 -15 -15 -14 -14 -13 -13 -13 -13 -13 -13 -13 -13 -13 -13 -14 -14 -14 -14
Height
3122 3121 3120 3119 3117 3115 3112 3108 3106 3103 3101 3099 3097 3095 3092 3089 3087 3085 3084 3082 3079 3077 3076 3074 3072 3069 3065 3064 3063 3062 3060 3058 3057 3057 3056 3057 3059 3060 3059 3059 3057 3059 3062
3118 3117 3115 3113 3110 3106 3103 3100 3097 3095 3093 3091 3089 3087 3084 3083 3081 3078 3076 3074 3072 3070 3067 3065 3062 3060 3059 3055 3053 3051 3050 3048 3046 3046 3044 3046 3049 3049 3048 3048 3050 3051 3052
3113 3111 3109 3106 3103 3099 3096 3093 3090 3088 3086 3085 3083 3082 3079 3077 3074 3070 3067 3061 3061 3059 3057 3055 3052 3049 3046 3045 3043 3040 3038 3037 3036 3034 3035 3033 3034 3035 3037 3038 3038 3040 3040
3112 3108 3104 3101 3097 3094 3091 3088 3085 3082 3080 3080 3078 3076 3073 3071 3067 3065 3061 3058 3053 3050 3046 3043 3041 3037 3035 3032 3031 3030 3028 3026 3025 3024 3023 3023 3022 3021 3021 3025 3026 3027 3029
3107 3104 3100 3096 3092 3088 3083 3080 3077 3075 3072 3070 3068 3067 3066 3063 3059 3055 3051 3047 3044 3041 3037 3032 3029 3026 3023 3021 3018 3018 3018 3018 3017 3015 3014 3012 3010 3008 3007 3008 3014 3013 3017
3099 3096 3092 3088 3084 3080 3078 3075 3071 3067 3063 3061 3060 3059 3056 3053 3049 3044 3041 3036 3032 3029 3025 3021 3017 3014 3012 3009 3007 3006 3004 3004 3004 3003 3002 3001 2997 2995 2993 2992 2996 2999 3003
3092 3088 3083 3079 3075 3072 3069 3065 3062 3059 3055 3053 3050 3046 3044 3042 3038 3034 3030 3026 3022 3018 3014 3010 3006 3003 2999 2997 2995 2992 2990 2990 2990 2990 2988 2986 2984 2983 2981 2979 2979 2983 2988
3085 3080 3076 3072 3068 3064 3060 3056 3053 3049 3046 3043 3039 3036 3033 3029 3026 3023 3020 3016 3012 3007 3002 2998 2995 2991 2987 2984 2981 2978 2976 2975 2972 2972 2973 2971 2970 2970 2969 2966 2967 2965 2971
3078 3073 3068 3064 3060 3056 3051 3047 3043 3039 3036 3033 3028 3024 3021 3017 3013 3010 3008 3005 3001 2996 2990 2986 2982 2978 2974 2970 2967 2963 2960 2958 2956 2955 2955 2955 2956 2956 2955 2953 2953 2951 2953
3071 3066 3060 3056 3052 3047 3042 3037 3033 3029 3025 3021 3017 3013 3009 3005 3003 3000 2997 2992 2987 2983 2977 2972 2968 2963 2959 2954 2951 2946 2944 2940 2939 2939 2940 2940 2941 2941 2940 2940 2940 2940 2938
3064 3060 3055 3049 3043 3038 3032 3027 3023 3019 3015 3010 3006 3002 2998 2996 2993 2990 2985 2980 2974 2969 2964 2959 2953 2949 2944 2940 2936 2932 2929 2926 2925 2925 2925 2925 2926 2926 2927 2927 2926 2926 2926
3057 3051 3043 3037 3032 3027 3021 3017 3012 3008 3004 2999 2995 2992 2988 2985 2981 2978 2974 2968 2962 2956 2950 2945 2940 2935 2931 2926 2922 2917 2915 2912 2910 2910 2909 2909 2911 2911 2913 2914 2914 2913 2914
3049 3043 3035 3026 3021 3015 3010 3004 2999 2994 2990 2987 2984 2982 2979 2975 2971 2966 2962 2956 2950 2944 2938 2933 2928 2923 2918 2913 2909 2904 2899 2896 2894 2893 2892 2893 2894 2894 2895 2897 2900 2901 2901
3040 3032 3024 3016 3010 3004 2998 2992 2987 2982 2979 2977 2975 2971 2968 2965 2961 2956 2952 2946 2939 2933 2927 2922 2916 2911 2906 2900 2895 2889 2884 2879 2876 2874 2874 2875 2876 2877 2878 2880 2883 2887 2888
3028 3021 3014 3007 3000 2993 2987 2982 2976 2972 2970 2969 2966 2962 2959 2957 2952 2947 2941 2934 2927 2921 2915 2909 2904 2898 2892 2886 2880 2874 2868 2862 2858 2858 2857 2857 2858 2860 2862 2864 2867 2871 2873
3017 3010 3003 2996 2989 2984 2978 2973 2969 2965 2963 2960 2957 2954 2951 2947 2942 2936 2929 2922 2916 2910 2904 2897 2890 2884 2877 2872 2864 2858 2851 2847 2844 2842 2842 2842 2842 2842 2844 2847 2850 2855 2858
3006 2998 2992 2986 2979 2974 2969 2965 2959 2956 2954 2951 2948 2946 2943 2937 2932 2926 2918 2911 2904 2898 2891 2884 2877 2869 2862 2857 2849 2844 2837 2833 2831 2830 2829 2829 2828 2829 2828 2830 2833 2837 2842
2996 2989 2982 2976 2969 2964 2959 2954 2952 2948 2945 2943 2941 2938 2933 2928 2922 2915 2908 2900 2893 2886 2879 2871 2864 2855 2849 2843 2837 2832 2826 2822 2820 2818 2817 2815 2815 2815 2816 2816 2817 2820 2825
2985 2977 2971 2965 2959 2955 2951 2947 2943 2940 2939 2937 2935 2930 2925 2918 2912 2905 2897 2890 2882 2875 2867 2860 2851 2843 2836 2831 2826 2821 2816 2811 2808 2806 2804 2802 2801 2801 2802 2802 2803 2806 2810
2975 2967 2960 2955 2951 2946 2943 2940 2937 2935 2933 2931 2926 2921 2916 2909 2903 2895 2888 2880 2871 2864 2857 2849 2840 2832 2825 2822 2816 2811 2804 2798 2795 2793 2790 2789 2788 2788 2788 2789 2791 2793 2800
2965 2958 2952 2947 2943 2940 2936 2934 2932 2930 2927 2924 2918 2913 2907 2901 2894 2886 2879 2870 2862 2855 2848 2839 2832 2824 2817 2812 2807 2802 2795 2790 2785 2782 2780 2778 2777 2777 2777 2777 2778 2784 2793
2954 2948 2944 2940 2937 2933 2931 2929 2927 2924 2920 2916 2911 2905 2899 2893 2885 2877 2870 2862 2854 2846 2838 2829 2824 2818 2811 2805 2799 2793 2787 2782 2777 2774 2771 2769 2767 2765 2764 2765 2767 2775 2781
2946 2941 2938 2934 2932 2929 2927 2924 2921 2918 2913 2908 2904 2898 2892 2885 2878 2869 2862 2854 2847 2838 2829 2821 2816 2812 2806 2798 2791 2784 2778 2773 2768 2766 2764 2762 2759 2756 2753 2752 2757 2765 2771
2938 2934 2932 2929 2926 2924 2921 2918 2915 2911 2907 2901 2897 2891 2884 2878 2871 2863 2856 2848 2840 2832 2823 2817 2812 2806 2800 2793 2787 2780 2774 2769 2765 2762 2760 2758 2754 2750 2745 2746 2750 2758 2764
2932 2929 2926 2924 2922 2919 2915 2912 2908 2905 2900 2895 2890 2884 2878 2871 2864 2858 2850 2843 2835 2825 2817 2812 2807 2802 2798 2792 2785 2778 2772 2768 2764 2761 2758 2755 2751 2747 2745 2746 2750 2756 2762
2928 2925 2922 2921 2917 2914 2910 2907 2902 2899 2895 2890 2884 2878 2872 2865 2859 2852 2846 2839 2831 2823 2816 2812 2807 2804 2798 2793 2788 2781 2774 2769 2765 2762 2759 2756 2753 2750 2748 2749 2752 2756 2761
Wind_Speed
20 21 25 27 26 26 27 29 30 30 31 30 30 31 33 33 33 33 32 33 35 36 36 37 36 37 38 37 36 35 34 33 35 34 35 35 36 37 40 37 33 33 34
17 21 22 23 27 29 31 32 32 33 33 33 33 33 33 34 35 36 38 38 36 36 39 41 40 38 36 38 37 36 35 36 37 36 38 39 39 40 41 37 37 37 34
14 18 20 23 25 27 29 31 34 34 35 35 34 33 33 34 36 39 40 43 40 42 44 42 41 41 40 36 33 32 32 34 35 37 38 39 42 43 42 40 35 36 39
19 19 21 26 30 32 32 30 31 33 33 31 31 30 31 32 36 38 40 40 44 44 43 42 41 39 37 36 35 31 30 32 33 35 38 40 43 45 47 44 45 45 39
19 24 30 31 31 29 26 24 27 31 32 29 29 28 31 35 38 41 41 41 41 42 42 42 42 41 40 39 38 36 33 31 34 36 39 42 45 46 48 49 48 50 41
23 25 28 26 27 27 31 35 35 34 33 32 31 31 34 38 40 40 39 42 42 43 44 45 45 45 44 43 43 42 42 39 38 38 38 42 45 47 48 52 52 52 52
22 26 27 23 26 29 30 31 32 32 35 34 35 37 39 38 39 40 42 43 45 47 47 48 48 48 47 46 45 45 45 45 44 43 43 42 43 48 51 52 55 54 55
29 32 28 25 28 32 31 31 32 32 35 37 40 42 41 39 41 42 44 47 47 50 51 50 50 49 47 46 45 46 47 48 49 48 45 44 43 42 46 51 52 55 56
38 36 32 29 32 35 35 32 32 35 37 39 42 42 42 42 43 41 45 48 51 54 51 51 51 49 48 46 46 48 49 48 47 46 43 43 44 40 46 49 51 53 56
38 36 38 38 38 39 38 36 33 36 39 43 42 43 43 40 41 41 48 51 51 50 50 49 48 47 46 46 45 46 46 45 44 42 41 42 44 42 41 48 51 51 53
35 40 39 38 42 44 43 37 35 36 38 42 42 41 39 38 41 48 47 47 49 47 47 46 46 46 45 44 44 44 44 44 45 45 45 44 45 48 45 44 47 48 50
39 45 47 48 47 45 44 43 39 34 37 41 39 40 39 44 43 42 45 46 46 46 46 46 46 45 44 45 46 47 46 46 46 46 46 47 47 50 52 48 49 51 50
44 48 46 50 43 42 43 45 43 34 36 38 39 44 39 38 40 43 44 46 47 47 46 47 46 46 46 46 48 48 48 49 49 49 49 48 47 52 54 53 50 51 52
52 52 49 45 44 42 43 43 41 34 36 39 42 37 36 39 39 43 45 47 46 47 46 46 46 46 47 48 48 49 51 52 52 51 49 48 48 50 53 49 49 51 52
52 47 49 45 43 40 39 39 38 39 41 39 37 34 35 37 41 44 48 48 46 45 45 46 46 47 48 49 49 51 52 53 52 49 48 47 48 49 50 52 50 49 52
50 53 52 44 40 36 35 37 38 40 40 35 33 31 35 39 42 45 48 46 46 44 45 45 47 48 48 49 50 49 48 46 46 45 43 43 44 46 48 52 52 50 54
60 54 43 40 38 33 34 34 39 40 30 29 28 33 37 41 42 47 47 46 44 44 45 46 48 48 50 48 46 42 42 42 41 38 36 36 36 37 41 47 51 54 54
50 45 45 42 38 34 34 37 38 26 25 23 29 36 39 42 44 48 46 44 45 45 45 46 46 49 46 41 37 35 36 37 37 37 37 37 38 38 38 39 42 49 52
48 45 44 39 36 31 33 39 25 21 20 26 32 37 40 41 45 45 44 45 46 45 44 43 46 45 40 34 32 33 35 38 39 38 38 37 37 37 38 38 39 42 47
46 46 39 35 33 34 28 21 19 19 23 28 33 36 39 43 42 43 43 44 45 43 41 43 43 38 35 30 32 34 38 40 39 37 35 32 30 28 31 37 38 39 40
50 40 33 32 28 22 21 18 18 22 25 30 34 38 38 40 41 41 42 43 41 39 41 42 35 30 31 32 30 30 32 33 34 33 32 31 31 31 29 30 37 37 35
40 33 29 25 21 22 17 17 21 24 28 31 36 36 37 39 40 40 41 39 38 40 41 38 28 27 28 27 29 31 31 32 35 34 33 30 29 30 30 31 33 32 36
34 28 23 21 19 17 17 20 22 25 29 32 34 35 36 37 38 40 38 35 37 40 40 31 27 27 24 29 30 28 25 23 24 24 24 24 25 27 27 28 32 30 35
30 24 20 18 17 17 20 21 23 26 30 31 33 34 35 35 36 35 33 35 37 40 34 27 26 25 26 27 27 23 20 17 15 14 14 14 15 16 12 12 23 29 33
25 19 17 16 17 19 21 22 25 28 30 30 31 33 33 34 32 30 31 33 35 39 31 26 26 26 24 23 23 21 19 15 11 7 5 6 9 6 3 10 17 24 28
20 16 14 15 19 20 23 25 26 28 28 29 31 31 32 31 30 29 28 30 34 33 24 21 21 20 20 18 18 17 16 12 7 5 4 4 4 4 4 8 14 21 25
Wind_Direction
263 262 271 278 280 284 286 283 279 278 279 280 280 280 279 279 281 283 283 289 296 302 301 299 297 295 293 292 289 286 284 280 277 275 269 271 269 265 266 267 263 266 268
278 275 280 285 289 288 287 282 277 275 275 277 279 278 278 279 281 283 287 294 297 295 295 294 293 290 287 287 285 284 282 280 278 276 275 271 267 266 265 269 261 262 256
295 294 295 295 293 294 289 283 280 278 277 278 279 277 276 277 279 285 294 299 297 295 294 292 290 291 289 286 286 285 280 275 274 272 270 269 265 265 263 263 261 258 255
304 301 308 300 296 297 295 296 288 284 283 284 281 277 272 275 281 286 289 288 291 291 292 293 292 291 293 292 291 287 282 277 272 269 268 264 265 263 261 256 258 258 255
296 290 295 302 298 295 291 293 294 293 288 286 276 270 271 276 283 287 290 292 290 290 293 299 302 303 300 298 296 292 285 274 269 266 266 267 265 263 262 257 249 252 252
302 294 297 297 299 290 289 294 295 291 286 290 281 280 282 289 291 291 291 291 295 299 302 303 304 302 301 300 297 294 291 285 276 270 263 263 264 266 266 264 256 249 244
309 311 311 305 298 301 301 297 297 288 282 284 282 281 288 288 288 290 293 296 296 299 302 301 300 298 296 293 289 288 286 284 281 279 277 271 264 261 262 263 263 256 250
325 321 320 308 301 304 303 287 287 282 278 280 277 280 281 281 283 286 290 290 292 296 298 297 295 293 292 290 286 282 280 280 281 281 278 276 269 267 263 261 262 260 254
326 322 321 319 309 308 308 297 287 282 279 277 275 277 278 278 278 282 283 288 289 293 295 295 294 293 290 287 284 282 281 281 281 280 277 272 267 261 263 262 261 261 257
324 319 317 316 311 308 308 302 294 282 277 276 277 277 276 276 278 281 285 287 291 294 295 296 295 294 293 292 291 289 288 286 282 278 274 267 262 260 258 261 259 259 259
319 317 312 310 308 306 304 301 296 283 276 272 275 276 277 278 281 286 290 292 296 299 299 299 299 299 298 296 293 290 288 284 281 277 274 270 266 260 261 258 259 256 255
313 320 319 314 310 308 301 298 294 279 271 269 270 270 275 280 288 292 295 298 301 302 303 304 303 302 301 298 296 294 290 286 282 279 274 268 264 260 261 259 256 258 256
317 320 318 317 315 313 307 301 292 273 266 266 267 278 284 290 292 297 299 303 305 305 304 304 302 301 301 299 297 294 290 287 282 278 274 269 263 260 259 257 254 255 257
322 321 322 318 316 312 305 299 289 268 265 269 280 283 288 293 296 297 303 305 304 304 302 301 300 300 299 298 295 293 290 287 284 280 274 268 262 257 256 255 251 250 252
325 322 325 318 313 308 303 298 283 272 275 284 280 288 295 294 296 301 306 306 305 304 302 301 300 300 300 297 296 293 289 285 282 279 275 270 264 260 256 255 254 248 247
319 319 320 314 311 303 299 299 286 282 285 281 288 293 292 297 299 304 309 308 307 303 304 302 302 303 300 299 297 292 287 283 280 278 276 273 267 261 256 252 250 247 244
320 316 320 316 308 297 292 285 285 290 279 288 295 292 294 298 300 308 311 309 306 306 306 305 305 304 302 302 297 293 286 283 282 282 279 275 271 266 263 256 249 246 242
318 320 318 315 306 297 287 285 289 277 292 296 291 292 296 301 304 310 311 310 310 310 310 308 307 306 305 302 297 290 286 283 283 282 280 275 270 265 263 260 255 246 240
323 316 318 307 301 299 297 284 274 296 298 292 297 297 299 303 310 311 311 311 312 313 311 310 310 310 307 303 296 291 289 286 284 282 279 276 272 266 259 257 253 246 240
324 320 312 303 299 294 284 282 301 300 293 298 303 304 306 310 311 312 312 314 315 314 314 314 315 311 306 304 300 295 292 291 290 287 285 283 281 276 263 254 250 246 237
323 315 303 303 302 283 289 309 299 291 296 301 305 308 310 312 313 313 315 318 316 316 318 318 316 310 307 306 301 299 295 292 290 290 289 287 285 278 270 258 248 243 232
322 311 307 306 292 299 309 298 294 297 298 302 307 311 313 314 315 316 318 319 318 320 323 321 316 314 311 312 311 306 297 288 284 286 285 286 281 277 267 251 247 232 226
312 304 303 296 303 307 302 301 302 302 303 307 311 313 316 316 319 319 321 321 323 326 327 324 323 324 325 325 322 318 311 300 290 285 284 284 281 278 277 255 235 224 218
301 296 296 303 306 306 304 305 307 307 308 311 313 315 317 320 321 322 323 325 328 330 329 326 329 332 336 330 327 322 320 319 309 297 291 287 292 303 284 225 215 211 211
291 293 301 307 302 304 308 309 310 309 312 314 316 318 320 323 324 326 327 329 332 332 330 330 334 338 339 338 339 337 329 322 312 301 302 320 328 328 228 203 200 202 204
290 300 310 302 302 309 310 311 311 313 315 317 318 321 323 327 328 329 330 334 336 334 325 327 329 339 337 344 358 10 13 7 353 8 10 350 356 22 135 172 189 193 200